Regional Weather Roundup
Issued by NWS Grand Forks, ND

Home | Current Version | Previous Version | Text Only | Print | Product List | Glossary On
Versions: 1 2 3 4 5 6 7 8 9 10 11 12 13 14 15 16 17 18 19 20 21 22 23 24 25 26 27 28 29 30 31 32 33 34 35 36 37 38 39 40 41 42 43 44 45 46 47 48 49 50
000
ASUS43 KFGF 011831
RWRFGF
PRAIRIE TO PINES  WEATHER ROUNDUP
NATIONAL WEATHER SERVICE EASTERN NORTH DAKOTA/GRAND FORKS ND
1200 PM CST SUN FEB 01 2015

 **SATELLITE DATA USED TO AUGMENT SKY COVER AT AUTOMATED STATIONS**
 *****  WEATHER ACROSS EASTERN NORTH DAKOTA  *****

CITY           SKY/WX    TMP DP  RH WIND       PRES   REMARKS
GRAND FORKS    MOSUNNY   -4 -16  56 N9        30.56F WCI -20
6HR MIN TEMP: -12; 6HR MAX TEMP:  -4;

GRAND FRKS AFB SUNNY     -4 -18  51 NE8       30.56F WCI -19
GRAND FRKS NWS   N/A     -2 N/A N/A N7          N/A  WCI -16
DEVILS LAKE    SUNNY     -6 -18  54 NW9       30.48F WCI -22
6HR MIN TEMP: -13; 6HR MAX TEMP:  -6;

FARGO          MOSUNNY    0 -13  54 N16       30.51F WCI -20
WAHPETON ARPT  CLEAR      3  -9  55 N16G23    30.45F WCI -16
$$

 ***** WEATHER ACROSS CENTRAL AND WESTERN NORTH DAKOTA  *****

CITY           SKY/WX    TMP DP  RH WIND       PRES   REMARKS
BISMARCK       SUNNY      0 -15  49 NW5       30.52F WCI -10
6HR MIN TEMP:  -8; 6HR MAX TEMP:   0;

MINOT          SUNNY     -2 -16  51 W3        30.47F
6HR MIN TEMP: -13; 6HR MAX TEMP:  -2;

JAMESTOWN      SUNNY     -1 -14  53 N12       30.48S WCI -18
6HR MIN TEMP:  -9; 6HR MAX TEMP:  -1;

MINOT AFB      SUNNY     -2 -13  59 W3        30.47F
GARRISON         N/A     -4 -15  59 NW5       30.46F WCI -15
WILLISTON      SUNNY      0  -8  69 SW8       30.44F WCI -14
6HR MIN TEMP: -19; 6HR MAX TEMP:   0;

DICKINSON      SUNNY     -3 -10  72 W6        30.37F WCI -15
6HR MIN TEMP: -13; 6HR MAX TEMP:  -3;

HETTINGER      SUNNY      1  -4  79 NW6       30.39F WCI -10
6HR MIN TEMP:  -7; 6HR MAX TEMP:   1; 6HR PCP: TRACE;

$$

 *****  OTHER AIRPORT OBSERVATIONS IN OUR AREA  *****

CITY           SKY/WX    TMP DP  RH WIND       PRES   REMARKS
WALHALLA         N/A     -2 -17  50 N6        30.54F WCI -14
GRAFTON AIRPOR NOT AVBL
VALLEY CITY AR FAIR       0 -15  50 N12G17    30.47F WCI -18
CANDO          FAIR      -2 -17  50 W9        30.48F WCI -18
CAVALIER APRT  FAIR      -4 -17  54 NW7       30.56F WCI -18
GWINNER        CLEAR      3 -11  51 N18       30.46F WCI -17
ROLLA          FAIR      -2 -15  55 S6        30.42F WCI -14
 ***** THE ABOVE OBSERVATIONS ARE NON NWS ARE NOT QUALITY
       CONTROLLED AND MAY MIS-REPORT RAIN FOR SNOW...
$$

  *****  WEATHER ACROSS NORTHERN MINNESOTA  *****

CITY           SKY/WX    TMP DP  RH WIND       PRES   REMARKS
FLAG ISLAND    SUNNY    -11 -20  64 NE3       30.48F
WARROAD        SUNNY     -9 -18  64 CALM      30.49F
ROSEAU         SUNNY     -8 -17  65 CALM      30.50F
HALLOCK        SUNNY     -8 -17  65 NW5       30.56F WCI -19
THF RVR FALLS  SUNNY     -6 -17  59 NW6       30.49F WCI -18
6HR MIN TEMP: -15; 6HR MAX TEMP:  -6;

BAUDETTE       SUNNY    -10 -19  64 NW7       30.46F WCI -25
6HR MIN TEMP: -18; 6HR MAX TEMP: -10;

WASKISH        SUNNY     -2 -15  55 CALM      30.44F
CROOKSTON      SUNNY     -4 -15  59 N8        30.54F WCI -19
STEPHEN NDAWN    N/A     -8 -17  65 NW9         N/A  WCI -25
GREENBUSH NDAW   N/A     -8 -17  65 NW5         N/A  WCI -19
$$
  *****  WEATHER ACROSS CENTRAL AND WEST MINNESOTA  *****

CITY           SKY/WX    TMP DP  RH WIND       PRES   REMARKS
FOSSTON        SUNNY      0  -9  65 N7        30.45F WCI -13
BEMIDJI        SUNNY     -3 -15  57 N5        30.40F WCI -14
PARK RAPIDS    SUNNY      1 -17  42 N10       30.37F WCI -15
6HR MIN TEMP:  -8; 6HR MAX TEMP:   1;

ELBOW LAKE     FAIR       5  -6  58 N13       30.37F WCI -11
WADENA         SUNNY      3 -11  51 N12       30.35F WCI -13
DETROIT LAKES  SUNNY      3 -11  51 N5        30.39F WCI  -6
MOORHEAD       SUNNY      0 -11  60 N15       30.49F WCI -20
FERGUS FALLS   SUNNY      5 -13  43 N8        30.43F WCI  -8
MORRIS MN      MOSUNNY   10  -2  56 N15       30.35F WCI  -6
STAPLES        SUNNY      5  -9  51 N12       30.34F WCI -11
$$
  *****  WEATHER ELSEWHERE ACROSS MINNESOTA  *****

CITY           SKY/WX    TMP DP  RH WIND       PRES   REMARKS
DULUTH         SUNNY      6 -15  37 N10       30.30F WCI  -9
6HR MIN TEMP:  -3; 6HR MAX TEMP:   6;

INTRNTL FALLS  SUNNY     -6 -16  61 N3        30.44F
6HR MIN TEMP: -26; 6HR MAX TEMP:  -6;

ELY            SUNNY     -2 -17  50 NE6       30.35F WCI -14
CLOQUET        MOSUNNY    7 -17  33 N8G17     30.31F WCI  -6
WHEATON        CLOUDY     0  -9  65 N15G24    30.44F WCI -20
BRAINERD       SUNNY      6  -7  54 N12       30.34F WCI  -9
6HR MIN TEMP:  -1; 6HR MAX TEMP:   7;

HIBBING        MOSUNNY    1 -17  42 VRB5      30.36F WCI  -9
6HR MIN TEMP: -11; 6HR MAX TEMP:   1;

ALEXANDRIA     FAIR       7  -2  66 N12       30.33F WCI  -8
6HR MIN TEMP:   0; 6HR MAX TEMP:   7;

SAINT CLOUD    MOSUNNY   11   0  61 N17G23    30.30F WCI  -6
6HR MIN TEMP:   5; 6HR MAX TEMP:  12;

MINNEAPOLIS    CLOUDY    15   0  51 NE16G28   30.24F WCI  -1
6HR MIN TEMP:  13; 6HR MAX TEMP:  15; 6HR PCP:  0.01;

$$

  *****  WEATHER ACROSS SOUTH DAKOTA  *****

CITY           SKY/WX    TMP DP  RH WIND       PRES   REMARKS
SIOUX FALLS    LGT SNOW   7   1  76 N23G31    30.25R BLWGSNOWWCI -14
6HR MIN TEMP:   6; 6HR MAX TEMP:  10; 6HR PCP:  0.01;

BROOKINGS      NOT AVBL
WATERTOWN      CLOUDY     2  -4  76 N17       30.31S WCI -18
6HR MIN TEMP:  -2; 6HR MAX TEMP:   2;

HURON          LGT SNOW   2  -6  69 N18       30.40F WCI -19
6HR MIN TEMP:   0; 6HR MAX TEMP:   2; 6HR PCP: TRACE;

SISSETON         N/A      0 -10  63 N20       30.43F WCI -22
ABERDEEN       PTSUNNY    1 -11  57 N18       30.46F WCI -20
6HR MIN TEMP:  -2; 6HR MAX TEMP:   2; 6HR PCP:  0.01;

MITCHELL       MIX PCPN   2  -3  80 N25G32    30.38S WCI -22
PIERRE         LGT SNOW   0  -7  72 NW21      30.46R WCI -22
6HR MIN TEMP:  -2; 6HR MAX TEMP:   1; 6HR PCP: TRACE;

MOBRIDGE       SUNNY      1 -11  57 N14       30.45R WCI -17
RAPID CITY     SUNNY      8   4  83 N20       30.35S WCI -11
6HR MIN TEMP:  -1; 6HR MAX TEMP:   8; 6HR PCP: TRACE;

$$

  *****  SOME WEATHER IN NEARBY STATES *****

CITY           SKY/WX    TMP DP  RH WIND       PRES   REMARKS
GLASGOW MT     SUNNY      2  -4  76 SE8       30.38F WCI -12
6HR MIN TEMP:  -9; 6HR MAX TEMP:   2;

GREAT FALLS MT MOSUNNY   15  11  83 S5        30.10F WCI   8
6HR MIN TEMP:  -7; 6HR MAX TEMP:  15;

CHEYENNE WY    CLOUDY    19  12  74 N13G23    30.12R WCI   6
6HR MIN TEMP:  13; 6HR MAX TEMP:  19; 6HR PCP: TRACE;

SCOTTSBLUFF NE CLOUDY    19   9  65 N21       30.28R WCI   3
6HR MIN TEMP:  16; 6HR MAX TEMP:  20; 6HR PCP: TRACE;

OMAHA NE       SNOW      17  14  88 N31G39    30.05R VSB 1/2 WCI  -3
6HR MIN TEMP:  18; 6HR MAX TEMP:  29; 6HR PCP: TRACE;

DES MOINES IA  SNOW      22  18  85 NE25G32   29.90R VSB 1/2 WCI   5
6HR MIN TEMP:  22; 6HR MAX TEMP:  34; 6HR PCP:  0.10;

DAVENPORT IA   SNOW      24  21  88 NE25G35   29.80F VSB 1/4 WCI   8
6HR MIN TEMP:  24; 6HR MAX TEMP:  32; 6HR PCP:  0.06;

CHICAGO IL     SNOW      26  24  92 NE20G26   29.82F VSB 1/2 WCI  12
6HR MIN TEMP:  26; 6HR MAX TEMP:  30; 6HR PCP:  0.26;

EAU CLAIRE WI  CLOUDY    13   0  56 NE15      30.20F WCI  -3
6HR MIN TEMP:  11; 6HR MAX TEMP:  13; 6HR PCP: TRACE;

LA CROSSE WI   LGT SNOW  17   9  70 N12G21    30.11F WCI   4
6HR MIN TEMP:  16; 6HR MAX TEMP:  17; 6HR PCP:  0.08;

$$

  *****  SOME NATIONAL WEATHER *****

CITY           SKY/WX    TMP DP  RH WIND       PRES   REMARKS
LA GUARDIA NY  PTSUNNY   35  18  49 W9        30.16F
6HR MIN TEMP:  24; 6HR MAX TEMP:  35;

RALEIGH NC     PTSUNNY   54  22  28 S12       30.17F
6HR MIN TEMP:  36; 6HR MAX TEMP:  55;

ATLANTA GA     CLOUDY    56  44  64 S10       30.10F
6HR MIN TEMP:  40; 6HR MAX TEMP:  56;

NEW ORLEANS LA PTSUNNY   72  63  73 S9        29.98F
6HR MIN TEMP:  60; 6HR MAX TEMP:  73; 6HR PCP:  0.03;

OKLAHOMA CITY  PTSUNNY   39  27  60 N33G43    30.06R
6HR MIN TEMP:  36; 6HR MAX TEMP:  46;

ALBUQUERQUE NM MOSUNNY   42  30  62 N12       30.16R
6HR MIN TEMP:  32; 6HR MAX TEMP:  43;

SALT LAKE CITY MOSUNNY   40  28  62 CALM      30.25S
6HR MIN TEMP:  27; 6HR MAX TEMP:  40;

LOS ANGELES CA MOSUNNY   62  52  69 E6        30.12R
6HR MIN TEMP:  50; 6HR MAX TEMP:  62;




USA.gov is the U.S. government's official web portal to all federal, state and local government web resources and services.